Location: Kott?ru
(16.6209°N, 80.6208°E)
Time: 03:39:32
(UTC+00:00)

ISS - Visible Passes

Search period start: 03 December 2023 00:00
Search period end: 13 December 2023 00:00
Orbit: 415 x 417 km, 51.6° (Epoch: 03 December)

Date Brightness Start Highest point End Pass type
(mag) Time Alt. Az. Time Alt. Az. Time Alt. Az.
06 Dec -2.4 13:32:01 10° NNW 13:33:52 30° NNW 13:33:52 30° NNW visible
07 Dec -2.9 12:43:46 10° NNW 12:46:44 29° NE 12:49:41 10° ESE visible
08 Dec -1.2 13:31:58 10° WNW 13:34:37 22° SW 13:37:16 10° S visible
09 Dec -2.8 12:42:46 10° NW 12:46:01 52° SW 12:49:15 10° SSE visible
11 Dec -0.1 12:43:46 10° WSW 12:45:00 12° WSW 12:46:13 10° SW visible
12 Dec -0.4 00:25:59 10° SSE 00:28:00 15° SE 00:30:00 10° E visible
